User: anonymous   Login
Location: Unspecified
(0.0000°N, 0.0000°E)
Time: 22:49:34
(UTC+00:00)
Language:

USA 264 DEB - Orbit

View from above orbital plane
View from above orbital plane
View from above satellite
View from above satellite

Ground track
Ground track

The orbit data is extracted from the following two-line orbital elements,

1 40981U 15058R   20035.72070996 0.00000000  00000-0  00000-0 0    04
2 40981  63.4414 231.9169 0010757  35.1521 324.8479 13.40796903    03
Epoch (UTC): 04 February 2020 17:17:49
Eccentricity: 0.0010757
inclination: 63.4414°
perigee height: 1098 km
apogee height: 1114 km
right ascension of ascending node: 231.9169°
argument of perigee: 35.1521°
revolutions per day: 13.40796903
mean anomaly at epoch: 324.8479°
orbit number at epoch: 0

The dashed part of the orbit path shows where the satellite is in the earth's shadow,  

DLR